Location: Ab? ar R?sh Ba?r?
(24.1861°N, 32.8847°E)
Time: 12:54:07
(UTC+00:00)

Milstar 3 Cent rocket - Pass Details

Date: 28 May 2022
Orbit: 706 x 5146 km, 28.3° (Epoch: 28 June)

Event Time Altitude Azimuth Distance (km) Brightness Sun altitude
Rises 19:07:43 0° 287° (WNW) 7,755 8.0 -30.3°
Reaches altitude 10° 19:14:19 10° 282° (WNW) 5,965 7.1 -31.3°
Maximum altitude 19:28:29 42° 219° (SW) 2,336 4.2 -33.4°
Enters shadow 19:29:17 41° 208° (SSW) 2,265 4.1 -33.5°
